DELTA 1 DEB, 7030

Orbit data source: Space-Track

DELTA 1 DEB, 7030 is space debris in SSO originally from a launch on Tue, 06 Nov 1973 UTC launched from the Air Force Western Test Range (AFWTR). Debris objects in space refer to the collection of defunct objects orbiting the Earth. Examples of debris include non-operational satellites, rocket bodies, and fragments generated from explosions, collisions, or faulty payload assembly.

Loading next visibility...
Identifier
7030, 1973-086W
Orbit
SSO
Country
Flag of USUS
Related business
Manufacturer
Unknown
Mission
Spacecraft
Bus & Motor
Unknown
Mass
Unknown
Launch date (UTC)
1973-11-06 (52 years ago)
Launch vehicle
Unknown
Launch site
Air Force Western Test Range (AFWTR)
Object type
Payload
Rocket body
Debris
Shape & HBR
Unknown shape, 0.1 m
Radar Cross Section
Small (<0.1 m²)

Expand to show TLE details & history
Last TLE update: 1 day ago

TLE from 1 day ago
0 DELTA 1 DEB
1 07030U 73086W   25296.94072481  .00000000  00000-0  38455-3 0  9991
2 07030 101.9202 296.0166 0089388 249.6665 167.2990 12.24079153320745
Epoch: 2025-10-23T22:34Z
TLE epoch observation values (Epoch: 2025-10-23T22:34:38.623Z)
Latitude
55.41104°
Longitude
-92.97515°
Altitude
1,653.191 km
Speed
7.02 km/s
True Right ascension
18h 33m 06s
True Declination
55° 16' 05"
Sunlit
Object was in daylight at epoch
Visualization orbit readout
Latitude
Unknown
Longitude
Unknown
Altitude
Unknown
Speed
Unknown
Apparent Right ascension
Unknown
Apparent Declination
Unknown
Sunlit
N/A
Visualization observer readout
Local Sidereal Time
04:49:13
Azimuth
Unknown
Elevation
Unknown
Doppler factor
Unknown
Orbital elements
Apogee altitude
1,643.483 km
Perigee altitude
1,501.346 km
Semi-major axis
7,950.551 km
Eccentricity
0.00894
Inclination
101.9202°
RAAN
296.0166°
Arg. of periapsis
249.6665°
True anomaly
167.52178°
Mean anomaly
167.299°
Eccentric anomaly
167.41063°
Mean motion
3.06159 °/min
Orbital period
117.59 mins
BSTAR
0.00038455
Loading maneuver chart data...
Computing Atmospheric mass density...
Loading historical data...
Loading historical data...
Loading historical data...
Loading historical data...
Loading historical data...
Loading historical data...
Loading historical data...

Documentation

Showing up to 5 results
|